Back to catalog

STARLINK-33994

AliveCommunicationsVLEO
NORAD 63931·PAYLOAD·🇺🇸 United States

Launched May 13, 2025 from Vandenberg Space Force Base

Loading…

Next Passes (next 24 hours)

TLE

FreshSource: CelesTrak SupGP

Epoch: Sep 14, 2026, 22:47 UTC

1 63931C 25098F   26257.94979167 -.00033278  00000+0 -11574-2 0  2571
2 63931  70.0002 155.6307 0003135 269.0580  63.1026 15.29602042    12

Track STARLINK-33994 in real time with AllMySat

Download on the App Store